Location: Llanfihangel-Ystrad
(52.1833°N, 4.1667°W)
Time: 05:38:12
(UTC+00:00)

Cosmos 407 Rocket - Pass Details

Date: 17 February 2020
Orbit: 745 x 785 km, 74.0° (Epoch: 30 March)

Event Time Altitude Azimuth Distance (km) Brightness Sun altitude
Rises 06:27:37 0° 212° (SSW) 3,262 6.5 -10.0°
Reaches altitude 10° 06:30:01 10° 215° (SW) 2,334 5.7 -9.7°
Maximum altitude 06:35:18 66° 298° (WNW) 849 3.5 -8.9°
Drops below altitude 10° 06:40:35 10° 21° (NNE) 2,327 6.2 -8.1°
Sets 06:42:59 0° 25° (NNE) 3,252 7.0 -7.7°
